Location: Aghk�ilisa
(40.0189°N, 45.0097°E)
Time: 17:37:35
(UTC+00:00)

Cosmos 1242 Rocket - Pass Details

Date: 21 October 2019
Orbit: 449 x 488 km, 81.2° (Epoch: 22 November)

Event Time Altitude Azimuth Distance (km) Brightness Sun altitude
Rises 14:56:57 0° 348° (NNW) 2,570 6.3 -9.2°
Reaches altitude 10° 14:59:05 10° 346° (NNW) 1,683 5.4 -9.6°
Maximum altitude 15:02:45 70° 262° (W) 520 2.9 -10.3°
Drops below altitude 10° 15:06:22 10° 179° (S) 1,657 5.3 -11.0°
Sets 15:08:27 0° 177° (S) 2,526 6.2 -11.4°
